Location: Arbon
(43.0005°N, 0.7472°E)
Time: 22:27:06
(UTC+00:00)

Altair - Pass Details

Date: 29 November 2020
Orbit: 1501 x 1682 km, 47.2° (Epoch: 26 January)

Event Time Altitude Azimuth Distance (km) Brightness Sun altitude
Rises 02:50:31 0° 295° (WNW) 4,639 - -46.1°
Reaches altitude 10° 02:53:38 10° 291° (WNW) 3,655 - -45.5°
Maximum altitude 03:02:20 50° 219° (SW) 1,854 - -44.0°
Exits shadow 03:08:03 23° 156° (SSE) 2,794 8.9 -43.0°
Drops below altitude 10° 03:11:12 10° 148° (SSE) 3,712 9.7 -42.4°
Sets 03:14:23 0° 143° (SE) 4,715 10.3 -41.8°
